Time,B instrument,Bx,By,Bz,sigma B,Ion instrument,Status,Tp_par,Tp_perp,carrot,r_sun,clat,clong,earth_he_angle,n_p,vp_x,vp_y,vp_z,vth_p_par,vth_p_perp
1978-02-14 00:05:42,-1,nan,nan,nan,nan,1,3,nan,nan,1665,0.9500764,-2.1034155,309.052,307.82544,nan,388.461,54.545,1.92727,nan,nan
1978-02-14 00:16:30,-1,nan,nan,nan,nan,1,3,nan,nan,1665,0.95005071,-2.104105,308.95239,307.82349,nan,383.934,54.7551,0.361662,nan,nan
1978-02-14 00:21:18,-1,nan,nan,nan,nan,1,4,nan,nan,1665,0.95003438,-2.0186257,308.86069,307.77475,nan,nan,nan,nan,nan,nan
1978-02-14 00:27:18,-1,nan,nan,nan,nan,1,3,nan,nan,1665,0.95002508,-2.1047935,308.85254,307.82129,nan,380.122,59.5937,1.33318,nan,nan
1978-02-14 00:32:06,-1,nan,nan,nan,nan,1,3,nan,nan,1665,0.9500134,-2.1051073,308.80884,307.82056,nan,380.121,59.594,1.33315,nan,nan
1978-02-14 00:38:06,-1,nan,nan,nan,nan,1,3,nan,nan,1665,0.94999939,-2.1054831,308.75293,307.81934,nan,380.23,56.3421,17.0313,nan,nan
1978-02-14 00:42:54,-1,nan,nan,nan,nan,1,3,nan,nan,1665,0.94999003,-2.1057339,308.70532,307.8186,nan,380.229,56.3423,17.0313,nan,nan
1978-02-14 00:53:42,-1,nan,nan,nan,nan,1,3,nan,nan,1665,0.9499644,-2.1064234,308.60571,307.81665,nan,375.484,60.887,13.6089,nan,nan
1978-02-14 00:59:42,-1,nan,nan,nan,nan,1,3,nan,nan,1665,0.9499504,-2.1067991,308.5498,307.81543,nan,375.218,57.5942,8.08986,nan,nan
1978-02-14 01:02:02,-1,nan,nan,nan,nan,1,4,nan,nan,1665,0.94993937,-2.0211201,308.48224,307.7674,nan,nan,nan,nan,nan,nan
1978-02-14 01:10:30,-1,nan,nan,nan,nan,1,3,nan,nan,1665,0.94992465,-2.1074886,308.4502,307.81348,nan,383.132,45.8712,12.1385,nan,nan
1978-02-14 01:12:50,-1,nan,nan,nan,nan,1,3,nan,nan,1665,0.94991404,-2.0217848,308.37875,307.76547,nan,383.131,45.8714,12.1385,nan,nan
1978-02-14 01:34:12,-1,nan,nan,nan,nan,1,4,nan,nan,1665,0.94986415,-2.0230873,308.17953,307.76157,nan,nan,nan,nan,nan,nan
1978-02-14 01:34:45,1,1.2,-4.58571,-2.95714,0.284282,1,1,106253.0,77998.3,1665,0.9498629,-2.0231218,308.17554,307.76147,11.7586,369.198,61.9353,16.4251,41.8821,35.884
1978-02-14 01:34:53,1,1.17692,-4.48462,-3.03846,0.237093,1,1,114048.0,71159.1,1665,0.94986856,-2.1089916,308.22339,307.80933,11.3156,369.833,62.066,14.4538,43.3911,34.2747
1978-02-14 01:35:25,1,0.7,-3.93571,-3.55714,0.561021,1,1,93857.8,76484.8,1665,0.94986624,-2.1090546,308.21533,307.80908,11.0046,371.655,59.7439,17.7019,39.3634,35.5341
1978-02-14 01:36:06,1,0.414286,-3.69286,-3.7,0.328028,1,1,107152.0,81423.0,1665,0.94986391,-2.1091175,308.21118,307.80884,11.3869,372.096,57.3139,19.1776,42.0589,36.6633
1978-02-14 01:36:46,1,0.985714,-3.71429,-3.52857,0.381993,1,1,103890.0,71061.0,1665,0.94986391,-2.1091175,308.20337,307.80884,10.9341,370.503,58.0692,20.0144,41.4137,34.251
1978-02-14 01:37:27,1,2.65714,-3.84286,-2.55,0.658113,1,1,108723.0,81839.3,1665,0.94986159,-2.1091795,308.19922,307.80859,10.85,366.439,60.8904,15.4477,42.3662,36.7569
1978-02-14 01:38:07,1,3.08571,-4.46429,-1.60714,0.947876,1,1,93159.0,68771.6,1665,0.9498592,-2.1092424,308.19141,307.80859,10.1806,367.261,61.5037,9.32686,39.2166,33.6948
1978-02-14 01:38:48,1,2.41538,-4.69231,-1.80769,0.361129,1,1,92241.5,76506.4,1665,0.9498592,-2.1092424,308.18359,307.80859,10.8681,365.836,62.1488,10.6984,39.023,35.5391
1978-02-14 01:39:28,1,2.07143,-4.62857,-2.07143,0.346999,1,1,88881.9,67265.2,1665,0.94985688,-2.1093054,308.17944,307.80835,10.7161,368.124,62.2372,12.88,38.3058,33.3237
1978-02-14 01:40:09,1,2.01429,-4.26429,-2.75714,0.346778,1,1,97828.1,77099.3,1665,0.94985455,-2.1093683,308.17139,307.80811,11.21,366.295,62.6576,12.9304,40.1874,35.6766
1978-02-14 01:40:49,1,1.7,-4.17857,-3.07143,0.332967,1,1,88568.2,70875.0,1665,0.94985455,-2.1093683,308.16748,307.80811,9.73399,367.86,63.0165,16.7285,38.2381,34.2062
1978-02-14 01:41:30,1,1.55385,-3.72308,-3.84615,0.677535,1,1,101750.0,77497.5,1665,0.94985223,-2.1094303,308.15942,307.80786,11.3669,371.708,57.1896,22.6475,40.9849,35.7686
1978-02-14 01:42:10,1,2.29286,-0.685714,-4.67857,1.23664,1,1,86123.1,77997.1,1665,0.94984984,-2.1094933,308.15552,307.80786,10.1988,367.703,47.5205,23.4717,37.7066,35.8837
1978-02-14 01:42:51,1,1.79286,-1.67857,-4.2,1.75688,1,1,89776.8,92273.0,1665,0.94984984,-2.1094933,308.14771,307.80786,12.3966,373.03,57.2496,23.6374,38.4982,39.0297
1978-02-14 01:43:31,1,4.02143,-2.12857,-1.47857,1.98595,1,1,72729.3,67238.3,1665,0.94984752,-2.1095562,308.13965,307.80762,9.28715,361.036,58.1522,18.9427,34.6508,33.317
1978-02-14 01:44:12,1,2.63571,-3.43571,-2.54286,1.06431,1,1,111053.0,77615.9,1665,0.94984519,-2.1096182,308.1355,307.80737,10.8027,367.658,62.5583,12.857,42.8178,35.7959
1978-02-14 01:44:52,1,2.66429,-3.44286,-2.91429,0.352903,1,1,86129.6,70113.2,1665,0.94984519,-2.1096182,308.12769,307.80737,10.6166,368.703,59.935,15.8259,37.7081,34.0218
1978-02-14 01:45:33,1,2.18462,-2.79231,-3.25385,0.861058,1,1,110660.0,83454.7,1665,0.94984287,-2.1096811,308.12378,307.80737,10.8611,369.165,59.9547,20.0733,42.7417,37.1179
1978-02-14 01:46:13,1,2.5,-2.4,-3.71333,0.65204,1,1,110864.0,74555.3,1665,0.94984055,-2.1097441,308.11572,307.80713,10.2937,365.816,57.1644,20.1461,42.7813,35.083
1978-02-14 01:46:54,1,1.37692,-3.3,-3.59231,0.544363,1,1,113289.0,75399.3,1665,0.94984055,-2.1097441,308.10791,307.80713,10.563,370.384,60.5895,22.0281,43.2467,35.281
1978-02-14 01:47:34,1,3.96429,-0.0285714,-3.21429,1.36847,1,1,112775.0,77964.2,1665,0.94983816,-2.1098061,308.10376,307.80688,11.2261,358.753,42.8126,18.0228,43.1484,35.8761
1978-02-14 01:48:15,1,4.26154,-1.51538,-3.04615,0.700549,1,1,102591.0,69687.4,1665,0.94983584,-2.109869,308.0957,307.80664,10.2241,360.605,49.8279,16.9496,41.154,33.9184
1978-02-14 01:48:55,1,3.93846,-2.00769,-2.83846,0.605791,1,1,100643.0,72422.5,1665,0.94983584,-2.109869,308.0918,307.80664,10.3003,359.051,58.5384,12.9416,40.7614,34.5776
1978-02-14 01:49:36,1,3.78462,-2.06923,-2.77692,0.653258,1,1,97882.9,83754.7,1665,0.94983351,-2.1099319,308.08398,307.80664,11.4835,359.657,60.7371,12.7166,40.1986,37.1846
1978-02-14 01:50:16,1,3.5,-2.23571,-2.95714,0.395188,1,1,92761.7,78504.6,1665,0.94983119,-2.1099949,308.07983,307.8064,10.8952,361.982,57.0654,16.8818,39.1329,36.0002
1978-02-14 01:50:57,1,3.43571,-2.88571,-2.54286,0.267738,1,1,93527.4,84475.8,1665,0.94983119,-2.1099949,308.07202,307.8064,10.887,366.29,55.6011,15.8292,39.2941,37.3443
1978-02-14 01:51:37,1,4.00714,-2.36429,-2.20714,0.509251,1,1,97661.8,83990.2,1665,0.9498288,-2.1100569,308.06396,307.80615,10.6357,359.168,55.7541,17.9514,40.1532,37.2368
1978-02-14 01:52:18,1,3.40769,-2.89231,-2.43846,0.329245,1,1,92028.4,86287.2,1665,0.94982648,-2.1101198,308.05981,307.80591,11.3239,363.505,58.2041,15.6614,38.9779,37.7425
1978-02-14 01:52:58,1,3.44286,-2.77857,-2.58571,0.418757,1,1,98237.1,80526.4,1665,0.94982648,-2.1101198,308.052,307.80591,11.4334,364.33,56.7465,15.6047,40.2713,36.4609
1978-02-14 01:53:39,1,3.27692,-3.18462,-2.46923,0.496735,1,1,85335.3,82425.0,1665,0.94982415,-2.1101828,308.0481,307.80591,11.19,362.764,58.8864,15.8259,37.5338,36.8882
1978-02-14 01:54:19,1,3.03077,-3.00769,-2.98462,0.597034,1,1,101649.0,75254.3,1665,0.94982183,-2.1102448,308.04004,307.80566,10.9596,365.444,58.6664,15.0513,40.9647,35.2471
1978-02-14 01:55:00,1,2.72143,-3.29286,-2.83571,0.670021,1,1,87906.9,86052.2,1665,0.94981951,-2.1103077,308.03198,307.80542,10.7121,365.309,62.5639,12.3711,38.0951,37.6911
1978-02-14 01:55:40,1,2.72667,-3.46667,-2.90667,0.300222,1,1,82676.6,78484.0,1665,0.94981951,-2.1103077,308.02808,307.80542,10.4104,365.35,59.8222,12.6057,36.9444,35.9955
1978-02-14 01:56:21,1,3.0,-3.43077,-2.8,0.261312,1,1,89629.3,86804.7,1665,0.94981712,-2.1103706,308.02002,307.80518,11.1747,364.958,58.3681,14.3878,38.4665,37.8555
1978-02-14 01:57:01,1,2.85714,-3.06429,-3.28571,0.356929,1,1,98195.3,74257.1,1665,0.9498148,-2.1104326,308.01611,307.80518,10.4377,363.6,59.8857,17.8632,40.2627,35.0128
1978-02-14 01:57:42,1,2.74615,-2.23846,-4.13846,0.423706,1,1,106870.0,82927.9,1665,0.9498148,-2.1104326,308.0083,307.80518,11.0898,364.13,55.3302,23.3576,42.0035,37.0006
1978-02-14 01:58:22,1,1.66154,-1.45385,-4.83077,0.264687,1,1,71203.6,80118.3,1665,0.94981247,-2.1104956,308.00415,307.80493,10.2983,361.845,59.142,26.6415,34.2854,36.3684
1978-02-14 01:59:03,1,1.63846,-1.69231,-4.81538,0.418507,1,1,84471.2,76865.0,1665,0.94981015,-2.1105585,307.99609,307.80469,9.96532,359.536,58.5328,25.2027,37.3433,35.6223
1978-02-14 01:59:43,1,1.44286,-1.05714,-5.00714,0.489742,1,1,81936.3,70936.9,1665,0.94981015,-2.1105585,307.98828,307.80469,9.23131,358.99,60.4253,26.3645,36.7787,34.2211
1978-02-14 02:00:24,1,2.09231,-1.86154,-4.30769,0.941735,1,1,79520.8,72686.0,1665,0.94980782,-2.1106215,307.98438,307.80469,10.1164,362.791,57.8168,25.3128,36.2325,34.6404
1978-02-14 02:01:04,1,2.51538,-2.20769,-3.96923,0.598321,1,1,94625.9,64239.2,1665,0.94980544,-2.1106834,307.97632,307.80444,10.1708,363.596,60.5102,17.9619,39.5242,32.5655
1978-02-14 02:01:45,1,3.83077,-2.60769,-2.28462,0.72927,1,1,109784.0,81228.7,1665,0.94980544,-2.1106834,307.97241,307.80444,11.3068,359.078,58.9514,13.5626,42.5723,36.6195
1978-02-14 02:02:25,1,2.62143,-1.99286,-3.93571,0.273208,1,1,115369.0,85456.1,1665,0.94980311,-2.1107464,307.96436,307.8042,11.4521,363.333,59.3147,15.8896,43.6418,37.5603
1978-02-14 02:03:06,1,2.36923,-4.32308,-2.23846,0.572548,1,1,105216.0,76869.0,1665,0.94980079,-2.1108093,307.96021,307.80396,10.7947,364.036,67.1948,14.0716,41.6772,35.6232
1978-02-14 02:03:46,1,2.25,-5.14286,-0.414286,0.461862,1,1,94295.6,64014.2,1665,0.94980079,-2.1108093,307.95239,307.80396,10.0509,364.788,59.8177,10.5018,39.4551,32.5084
1978-02-14 02:04:27,1,2.04286,-5.21429,0.271429,0.450397,1,1,116110.0,74967.3,1665,0.94979841,-2.1108713,307.94458,307.80396,11.5668,366.171,63.1837,4.89491,43.7818,35.1798
1978-02-14 02:05:07,1,2.17857,-4.91429,0.785714,0.794528,1,1,89037.7,69210.1,1665,0.94979608,-2.1109343,307.94043,307.80371,10.3077,365.046,62.7112,5.45395,38.3394,33.802
1978-02-14 02:05:48,1,0.514286,-1.36429,-4.82143,0.459258,1,1,104253.0,79030.5,1665,0.94979608,-2.1109343,307.93262,307.80371,10.9384,367.606,59.8711,18.207,41.4861,36.1206
1978-02-14 02:06:28,1,0.428571,-1.48571,-4.45714,0.653562,1,1,109313.0,82412.6,1665,0.94979376,-2.1109972,307.92847,307.80347,11.8024,365.666,57.9729,16.1223,42.4809,36.8854
1978-02-14 02:07:09,1,1.58462,-3.28462,-3.06923,0.361784,1,1,107184.0,87779.7,1665,0.94979137,-2.1110601,307.92041,307.80322,11.6262,366.827,58.8995,13.398,42.0652,38.0676
1978-02-14 02:07:49,1,1.56667,-4.96,-1.20667,0.518888,1,1,90695.3,71258.3,1665,0.94979137,-2.1110601,307.9126,307.80322,10.4394,367.094,62.5414,10.9024,38.6946,34.2985
1978-02-14 02:08:30,1,1.88462,-4.81538,-0.584615,0.99192,1,1,117007.0,79798.2,1665,0.94978905,-2.1111221,307.90869,307.80322,10.7065,364.794,63.4474,8.84756,43.9505,36.2956
1978-02-14 02:35:42,-1,nan,nan,nan,nan,1,4,nan,nan,1665,0.94972575,-2.1128149,307.65356,307.7981,nan,nan,nan,nan,nan,nan
1978-02-14 02:44:42,-1,nan,nan,nan,nan,1,3,nan,nan,1665,0.94970471,-2.1133795,307.57007,307.79663,nan,370.619,58.3983,6.88925,nan,nan
1978-02-14 02:45:23,-1,nan,nan,nan,nan,1,4,nan,nan,1665,0.94970232,-2.1134424,307.56592,307.79639,nan,nan,nan,nan,nan,nan
1978-02-14 02:46:03,1,-1.39286,-3.93571,-0.657143,0.672719,1,1,92823.0,59164.2,1665,0.9497,-2.1135044,307.55786,307.79614,10.0985,371.278,59.0836,11.463,39.1459,31.2527
1978-02-14 02:46:44,1,-2.17857,-3.75714,-1.32857,0.182528,1,1,95724.4,56931.7,1665,0.9497,-2.1135044,307.55005,307.79614,10.2239,373.241,57.5766,14.9379,39.7529,30.6574
1978-02-14 02:47:25,1,-2.15714,-4.12857,-1.04286,0.375798,1,1,91276.7,54489.2,1665,0.94969767,-2.1135674,307.5459,307.7959,9.84795,372.384,60.5359,16.2569,38.8184,29.9925
1978-02-14 02:48:06,1,-2.12857,-4.01429,-0.392857,0.600892,1,1,101229.0,51203.3,1665,0.94969529,-2.1136303,307.53809,307.7959,9.87372,371.665,58.8443,14.3229,40.88,29.0741
1978-02-14 02:48:46,1,-2.40714,-4.0,0.0142857,0.619125,1,1,97972.7,48872.6,1665,0.94969529,-2.1136303,307.53418,307.7959,9.80835,373.707,60.7478,6.87092,40.2171,28.4047
1978-02-14 02:49:27,1,-2.78667,-3.74,-0.446667,0.437467,1,1,87895.9,59557.3,1665,0.94969296,-2.1136923,307.52612,307.79565,10.5128,374.456,57.1317,12.5828,38.0927,31.3563
1978-02-14 02:50:07,1,-3.08571,-3.55,-0.814286,0.363444,1,1,94916.6,45317.8,1665,0.94969064,-2.1137552,307.51807,307.79541,9.66659,377.59,58.0258,13.3454,39.5849,27.3522
1978-02-14 02:50:48,1,-2.8,-3.70714,-0.814286,0.316953,1,1,94651.8,54375.9,1665,0.94969064,-2.1137552,307.51416,307.79541,9.68369,372.774,58.1105,11.8039,39.5296,29.9613
1978-02-14 02:52:09,1,-2.66667,-3.84,-0.926667,0.224895,1,1,97962.7,53419.5,1665,0.94968593,-2.1138811,307.5022,307.79517,10.1183,370.943,58.0422,13.5405,40.215,29.6967
1978-02-14 02:52:49,1,-2.73571,-3.9,-0.671429,0.37232,1,1,94400.6,54697.2,1665,0.94968593,-2.1138811,307.49438,307.79517,9.95508,373.118,60.6685,13.7543,39.4771,30.0497
1978-02-14 02:53:30,1,-2.76429,-3.9,-0.585714,0.288999,1,1,101115.0,57022.6,1665,0.94968361,-2.1139431,307.49023,307.79492,10.2388,372.254,59.4042,12.2427,40.857,30.6818
1978-02-14 02:54:10,1,-2.80769,-3.86923,-0.561538,0.317162,1,1,99240.4,48594.0,1665,0.94968122,-2.114006,307.48218,307.79468,10.1599,373.364,59.2742,12.4375,40.4764,28.3237
1978-02-14 02:54:51,1,-2.89333,-3.97333,-0.286667,0.401331,1,1,92122.3,58145.9,1665,0.94968122,-2.114006,307.47437,307.79468,10.2752,373.02,58.4081,9.5471,38.9978,30.9826
1978-02-14 02:55:30,1,-3.05,-3.8,-0.0428571,0.457422,1,1,92551.9,44994.2,1665,0.9496789,-2.114069,307.47021,307.79443,9.44639,377.027,59.3438,6.58492,39.0886,27.2544
1978-02-14 04:02:07,-1,nan,nan,nan,nan,1,3,nan,nan,1665,0.9495216,-2.118268,306.84888,307.78247,nan,375.339,54.8806,21.2436,nan,nan
1978-02-14 04:23:43,-1,nan,nan,nan,nan,1,3,nan,nan,1665,0.94947219,-2.1195841,306.646,307.77881,nan,376.518,49.7233,23.517,nan,nan
1978-02-14 04:45:19,-1,nan,nan,nan,nan,1,3,nan,nan,1665,0.94942045,-2.1209641,306.44678,307.7749,nan,372.335,47.0673,17.724,nan,nan
1978-02-14 05:06:55,-1,nan,nan,nan,nan,1,3,nan,nan,1665,0.94937098,-2.1222801,306.24365,307.771,nan,374.945,45.8419,9.99971,nan,nan
1978-02-14 05:28:31,-1,nan,nan,nan,nan,1,3,nan,nan,1665,0.94931912,-2.1236601,306.04443,307.76709,nan,369.814,58.2758,13.722,nan,nan
1978-02-14 05:50:07,-1,nan,nan,nan,nan,1,3,nan,nan,1665,0.94926727,-2.1250391,305.84106,307.76294,nan,364.513,51.8823,25.3537,nan,nan
1978-02-14 06:11:43,-1,nan,nan,nan,nan,1,3,nan,nan,1665,0.94921774,-2.1263561,305.63794,307.75903,nan,367.736,61.2945,13.7532,nan,nan
1978-02-14 06:33:19,-1,nan,nan,nan,nan,1,3,nan,nan,1665,0.94916576,-2.1277351,305.43872,307.75513,nan,361.818,58.6265,17.9031,nan,nan
1978-02-14 06:54:55,-1,nan,nan,nan,nan,1,3,nan,nan,1665,0.94911611,-2.1290522,305.23584,307.75146,nan,363.101,71.2798,17.9174,nan,nan
1978-02-14 07:16:31,-1,nan,nan,nan,nan,1,3,nan,nan,1665,0.94906408,-2.1304321,305.03662,307.74756,nan,340.163,68.7211,5.0708,nan,nan
1978-02-14 07:38:07,-1,nan,nan,nan,nan,1,3,nan,nan,1665,0.94901204,-2.1318111,304.8335,307.74365,nan,342.421,63.538,-3.27202,nan,nan
1978-02-14 07:59:43,-1,nan,nan,nan,nan,1,3,nan,nan,1665,0.94896233,-2.1331282,304.63428,307.73975,nan,346.512,18.0405,-21.7568,nan,nan
1978-02-14 08:21:19,-1,nan,nan,nan,nan,1,3,nan,nan,1665,0.94891018,-2.1345081,304.43115,307.73584,nan,350.39,37.9662,-20.9576,nan,nan
1978-02-14 08:42:55,-1,nan,nan,nan,nan,1,3,nan,nan,1665,0.94886035,-2.1358252,304.22803,307.73193,nan,366.634,-3.0673,-10.4606,nan,nan
1978-02-14 09:04:31,-1,nan,nan,nan,nan,1,3,nan,nan,1665,0.94880813,-2.1372051,304.02881,307.72803,nan,393.428,22.1611,21.1752,nan,nan
1978-02-14 09:26:07,-1,nan,nan,nan,nan,1,3,nan,nan,1665,0.94875586,-2.1385851,303.82544,307.72388,nan,378.75,-7.76863,-13.4032,nan,nan
1978-02-14 09:40:27,-1,nan,nan,nan,nan,1,3,nan,nan,1665,0.94871771,-2.0528486,303.64648,307.67383,nan,378.747,-7.76787,-13.4032,nan,nan
1978-02-14 10:18:58,1,-5.2,8.15,-0.1,0.193649,1,1,51251.7,59620.8,1665,0.94863218,-2.1418476,303.33179,307.7146,6.56452,399.943,-4.23577,12.478,29.0879,31.3731
1978-02-14 10:19:17,1,-4.92857,8.35,-0.1,0.321111,1,1,58011.2,78259.0,1665,0.94862539,-2.0552223,303.284,307.66681,6.94111,399.616,-2.63404,14.5104,30.9467,35.9439
1978-02-14 10:19:39,1,-4.67143,8.41429,-0.1,0.221313,1,1,49228.5,71621.2,1665,0.9486298,-2.1419096,303.32788,307.7146,6.83402,398.387,-0.509362,12.7039,28.508,34.3858
1978-02-14 10:19:58,1,-4.58,8.46,-0.1,0.178885,1,1,59383.9,82861.2,1665,0.9486298,-2.1419096,303.32397,307.7146,6.83674,399.999,-4.51877,12.4891,31.3107,36.9857
1978-02-14 10:20:38,1,-4.78,8.38667,-0.1,0.22529,1,1,52471.1,83311.8,1665,0.94862747,-2.1419725,303.31982,307.71436,6.68604,399.364,-4.35716,13.6396,29.4319,37.0861
1978-02-14 10:21:59,1,-4.86,7.92,0.7,0.219089,1,1,68621.4,105334.0,1665,0.94862509,-2.1420355,303.30396,307.71411,7.52024,404.688,-9.38686,14.7005,33.658,41.7005
1978-02-14 10:22:40,1,-4.81429,7.27857,1.12857,0.212012,1,1,77800.9,124482.0,1665,0.9486227,-2.1420984,303.2998,307.71387,8.56041,402.949,-6.19348,13.6165,35.8385,45.3327
1978-02-14 10:23:20,1,-4.74,7.55333,0.78,0.474506,1,1,71353.7,92760.9,1665,0.94862032,-2.1421614,303.29199,307.71387,7.91174,400.662,-8.7732,17.9196,34.3215,39.1327
1978-02-14 10:24:01,1,-4.60667,7.99333,0.753333,0.238886,1,1,72101.5,87536.5,1665,0.94861794,-2.1422234,303.28784,307.71362,8.35216,396.911,-11.6902,20.8767,34.5009,38.0148
1978-02-14 10:24:41,1,-4.32857,7.72143,0.471429,0.398274,1,1,66202.4,87640.6,1665,0.94861794,-2.1422234,303.28003,307.71362,8.14471,399.097,-7.66921,14.5,33.0594,38.0374
1978-02-14 10:25:22,1,-4.02,7.98,0.566667,0.334797,1,1,74050.6,90166.6,1665,0.94861555,-2.1422863,303.27197,307.71338,8.52728,395.895,-4.83691,13.3833,34.9641,38.5816
1978-02-14 10:26:02,1,-4.17333,7.80667,0.62,0.292423,1,1,73900.4,82082.8,1665,0.94861317,-2.1423492,303.26782,307.71313,8.44293,399.647,-3.26,13.4537,34.9286,36.8115
1978-02-14 10:26:43,1,-4.14667,7.69333,0.726667,0.22151,1,1,92349.5,94444.9,1665,0.94861317,-2.1423492,303.26001,307.71313,9.49316,398.576,-9.45535,17.1904,39.0459,39.4864
1978-02-14 10:27:23,1,-3.92,7.67333,1.20667,0.508768,1,1,74357.5,92247.5,1665,0.94861078,-2.1424122,303.2561,307.71313,8.65896,404.207,-9.23177,19.9889,35.0365,39.0243
1978-02-14 10:28:04,1,-3.84,7.88667,1.5,0.107497,1,1,100588.0,98468.9,1665,0.9486084,-2.1424742,303.24805,307.71289,9.60851,402.082,-11.2854,14.2985,40.7503,40.3188
1978-02-14 10:28:44,1,-3.98,7.46667,1.42,0.30565,1,1,96050.7,92921.4,1665,0.9486084,-2.1424742,303.24414,307.71289,9.15624,403.769,-8.54173,14.4521,39.8206,39.1666
1978-02-14 10:29:25,1,-3.76,7.57333,1.39333,0.298291,1,1,91176.5,102073.0,1665,0.94860601,-2.1425371,303.23608,307.71265,8.75032,397.587,-11.247,13.7646,38.7971,41.05
1978-02-14 10:30:05,1,-3.74615,7.99231,1.27692,0.890316,1,1,86724.9,88918.1,1665,0.94860363,-2.1426001,303.22827,307.71265,8.83781,399.957,-8.22934,10.2739,37.8381,38.3136
1978-02-14 10:30:46,1,-5.10714,8.58571,-1.5,0.607479,1,1,35851.9,94936.3,1665,0.94860363,-2.1426001,303.22437,307.71265,5.09357,409.227,-23.3997,24.1125,24.3284,39.5889
1978-02-14 10:31:26,1,-5.38667,8.34667,-2.60667,0.308113,1,1,26694.4,70981.0,1665,0.94860125,-2.142663,303.21631,307.7124,5.2603,409.553,-20.9077,29.7362,20.9927,34.2317
1978-02-14 10:32:07,1,-5.36667,8.42667,-2.44667,0.273252,1,1,32881.7,70268.1,1665,0.94859886,-2.1427259,303.21216,307.71216,5.22229,409.418,-23.2932,22.9029,23.2989,34.0594
1978-02-14 10:32:47,1,-5.42,8.08,-2.76667,0.250511,1,1,36004.6,67130.4,1665,0.94859886,-2.1427259,303.20435,307.71216,5.28771,410.068,-21.6866,22.9129,24.3802,33.2903
1978-02-14 10:34:08,1,-5.65,8.07857,-2.58571,0.798915,1,1,26373.8,69158.5,1665,0.94859409,-2.1428509,303.19238,307.71191,4.5414,407.928,-21.5333,18.0766,20.8663,33.7894
1978-02-14 10:34:49,1,-5.45333,8.21333,-2.34,0.284097,1,1,31124.9,66282.4,1665,0.94859409,-2.1428509,303.18457,307.71191,5.20091,409.837,-25.788,13.7872,22.6679,33.0793
1978-02-14 10:35:29,1,-5.46,8.56,-1.91333,0.390669,1,1,26003.6,74145.3,1665,0.94859171,-2.1429138,303.18042,307.71167,4.99437,408.26,-23.7209,18.7263,20.7193,34.9864
1978-02-14 10:36:10,1,-5.35333,8.42667,-2.02,0.389073,1,1,38866.7,78017.4,1665,0.94858932,-2.1429768,303.17236,307.71143,5.22208,408.266,-21.6308,25.9505,25.3307,35.8884
1978-02-14 10:36:50,1,-5.32,8.29333,-1.58,0.694614,1,1,42177.5,75842.8,1665,0.94858932,-2.1429768,303.16846,307.71143,5.07293,411.188,-19.7518,22.3817,26.3875,35.3847
1978-02-14 10:37:31,1,-5.41875,7.98125,-2.0125,0.398924,1,1,49965.7,87690.5,1665,0.94858694,-2.1430397,303.1604,307.71118,5.38406,414.41,-17.1931,32.6462,28.7206,38.0482
1978-02-14 11:13:43,-1,nan,nan,nan,nan,1,3,nan,nan,1665,0.94850117,-2.145298,302.82202,307.70483,nan,416.247,-16.0651,8.93115,nan,nan
1978-02-14 11:14:24,1,-5.10667,5.97333,2.49333,0.643325,1,1,84981.9,144123.0,1665,0.94849879,-2.1453609,302.81787,307.70459,6.74148,420.103,-8.30759,-0.659994,37.456,48.7781
1978-02-14 11:15:04,1,-6.3,4.7,3.13125,0.795863,1,1,64842.4,138524.0,1665,0.9484964,-2.1454239,302.81006,307.70459,6.35447,430.298,2.33644,1.3274,32.7181,47.8212
1978-02-14 11:15:45,1,-5.76875,5.3,3.11875,0.765619,1,1,52480.7,126230.0,1665,0.9484964,-2.1454239,302.80615,307.70459,6.19253,424.338,-1.67195,-2.4174,29.4346,45.6498
1978-02-14 11:16:26,1,-6.9,4.57333,2.06,0.745892,1,1,55815.5,131548.0,1665,0.94849402,-2.1454859,302.7981,307.70435,6.12433,430.898,-1.59041,13.428,30.3554,46.6015
1978-02-14 11:17:07,1,-7.20667,4.52667,1.86667,0.61709,1,1,54274.7,123710.0,1665,0.94849163,-2.1455488,302.79004,307.7041,6.06798,428.137,0.596087,11.3754,29.9334,45.1918
1978-02-14 11:17:47,1,-7.27333,4.64,1.8,0.519316,1,1,37461.5,134632.0,1665,0.94849163,-2.1455488,302.78613,307.7041,5.6989,429.283,4.68726,16.357,24.8686,47.1446
1978-02-14 11:18:28,1,-7.68,4.04,1.96,0.247117,1,1,45702.6,135820.0,1665,0.94848925,-2.1456118,302.77808,307.70386,5.42419,432.686,6.12708,12.8684,27.4681,47.3521
1978-02-14 11:19:08,1,-7.66875,4.0,2.375,0.517468,1,1,45274.3,110019.0,1665,0.94848686,-2.1456747,302.77417,307.70386,4.68315,431.185,11.6376,7.08429,27.3391,42.6178
1978-02-14 11:19:49,1,-7.25333,4.48,2.70667,0.31735,1,1,47476.8,125425.0,1665,0.94848686,-2.1456747,302.76636,307.70386,5.25147,427.791,4.02087,9.15613,27.9962,45.5041
1978-02-14 11:20:29,1,-6.88,4.58,3.02,0.347563,1,1,47786.6,141045.0,1665,0.94848448,-2.1457376,302.7583,307.70361,5.33054,425.359,2.84044,1.53981,28.0874,48.2543
1978-02-14 11:21:10,1,-7.20667,3.92,2.94667,0.431329,1,1,51145.5,129708.0,1665,0.9484821,-2.1457996,302.75415,307.70337,5.39883,429.931,8.0638,2.3188,29.0577,46.2745
1978-02-14 11:21:50,1,-6.33125,4.95625,3.325,0.656875,1,1,54508.4,129898.0,1665,0.9484821,-2.1457996,302.74634,307.70337,5.28096,424.003,0.429729,1.0105,29.9978,46.3083
1978-02-14 11:22:31,1,-6.89375,4.2625,3.11875,0.530993,1,1,41243.0,109923.0,1665,0.94847971,-2.1458626,302.74219,307.70313,4.59133,427.153,3.72914,-1.37549,26.0935,42.5992
1978-02-14 11:23:11,1,-5.64667,5.64,3.24,1.35817,1,1,47162.2,129126.0,1665,0.94847733,-2.1459255,302.73438,307.70313,4.8844,422.14,-3.26,0.738922,27.9033,46.1706
1978-02-14 11:23:52,1,-5.02857,6.19286,3.17143,0.651725,1,1,53240.4,113418.0,1665,0.94847733,-2.1459255,302.73047,307.70313,5.69177,415.387,-8.37673,0.355367,29.6469,43.2712
1978-02-14 11:24:32,1,-5.35714,5.90714,3.31429,0.5632,1,1,45095.4,107447.0,1665,0.94847494,-2.1459885,302.72241,307.70288,5.71989,419.056,-7.87443,1.91881,27.285,42.1167
1978-02-14 11:25:13,1,-5.35625,6.03125,3.24375,0.531103,1,1,49592.5,119873.0,1665,0.94847256,-2.1460514,302.71436,307.70264,5.95431,419.059,-4.93905,0.570375,28.6132,44.4855
1978-02-14 11:25:53,1,-6.24667,5.59333,3.3,0.276486,1,1,34528.9,113267.0,1665,0.94847256,-2.1460514,302.71045,307.70264,4.24339,420.504,-4.26509,2.6716,23.8753,43.2424
1978-02-14 11:26:34,1,-6.63125,5.26875,3.55,0.474918,1,1,33818.1,105951.0,1665,0.94847018,-2.1461134,302.70239,307.70239,4.29809,418.949,-4.13663,2.8178,23.6283,41.8225
1978-02-14 11:27:14,1,-6.96,4.71333,3.04,0.522132,1,1,34475.2,123622.0,1665,0.94846779,-2.1461763,302.69849,307.70239,4.41914,423.346,3.88539,-1.21059,23.8567,45.1758